Showing default

YAOGAN-31 B, 43276

Orbit data source: Space-Track

YAOGAN-31 B, 43276 is a payload satellite owned by PLA SSF (CN) in LEO that was launched on Tue, 10 Apr 2018 UTC via a CHANG ZHENG 4C launch vehicle from the Jiuquan Satellite Launch Center, China (JSC). Payloads include a variety of satellites, spacecraft, and rockets equipped with specific instruments for various scientific and technological missions. These include communications satellites like Starlink; space stations such as the ISS; scientific satellites like the Hubble; Earth observation satellites from companies like Planet Labs, Umbra, and HawkEye 360; GPS; miniature CubeSats for education and research; and military/defense satellites.

Loading next visibility...
YAOGAN-31 B details
Identifier
43276, 2018-034B
Orbit
LEO
Last TLE update4 hours ago
Origin
Flag of CNPLA SSF (CN / PRC)
ManufacturerDFH
MissionOperational Defense Sigint
Bus & MotorUnknown
Mass~500 kg wet, ~500 kg dry
Launch date (UTC)
2018-04-10 (7 years ago)
Launch vehicle
CHANG ZHENG 4C
Launch site
Jiuquan Satellite Launch Center, China (JSC)
Object type
Payload
Rocket body
Debris
Shape & HBRBox + 2 Pan, 1 m
Radar Cross Section0.446 m², Large (>1 m²)

Expand to show TLE details & history

TLE from 4 hours ago
0 YAOGAN-31 B
1 43276U 18034B   24361.46345199  .00000070  00000-0  23163-3 0  9990
2 43276  63.3990  34.3725 0227352   5.7475 354.6079 13.45375262329878
Epoch: 2024-12-26T11:07Z
Definitive object data (Epoch: 2024-12-26T11:07:22.251Z)
Latitude-0.00006°
Longitude132.08728°
Altitude922.085 km
Speed7.474 km/s
True Right ascension02h 17m 29s
True Declination0° 00' 00"
Sunlit
Object was in daylight at TLE epoch
Visualization TLE readout
Latitude62.32789°
Longitude-156.52083°
Altitude1,053.922 km
Speed7.353 km/s
Apparent Right ascension04h 17m 53s
Apparent Declination19° 44' 25"
Sunlit
Object is in full shadow
Visualization observer readout
Local Sidereal Time14:26:48
Azimuth331.067° NNW
Elevation-24.962°
Doppler factor1
Orbital elements
Apogee altitude1,257.899 km
Perigee altitude918.404 km
Semi-major axis7,466.288 km
Eccentricity0.0227352
Inclination63.399°
RAAN34.3725°
Arg. of periapsis5.7475°
True anomaly354.35596°
Mean anomaly354.6079°
Eccentric anomaly354.48266°
Mean motion3.36423 °/min
BSTAR0.00023163
Orbital period107.01 mins
Loading maneuver chart data...
Loading historical data...
Loading historical data...
Loading historical data...
Loading historical data...
Loading historical data...
Loading historical data...
Loading historical data...

YAOGAN-31 B Visibility forecast

Observer location: undefined°, undefined

Span
Click to sort rows by Start time (UTC) header in descending order
Start Az.
Max El. time (UTC)
Max El. Az.
Max El.
End time (UTC)
End Az.
5 mins2024-12-26 15:20:51.425Z278.425° WNW2024-12-26 15:23:51.425Z254.303° W12.577°2024-12-26 15:25:51.425Z238.226° WSW
8 mins2024-12-27 03:18:51.425Z159.593° S2024-12-27 03:21:51.425Z116.962° SE27.795°2024-12-27 03:26:51.425Z55.658° ENE
10 mins2024-12-27 05:07:51.425Z245.273° WSW2024-12-27 05:12:51.425Z325.196° NNW34.954°2024-12-27 05:17:51.425Z21.967° NNE
9 mins2024-12-27 10:48:51.425Z356.434° N2024-12-27 10:52:51.425Z36.092° NE19.288°2024-12-27 10:57:51.425Z79.134° E
13 mins2024-12-27 12:38:51.425Z331.577° NNW2024-12-27 12:44:51.425Z81.24° E43.424°2024-12-27 12:51:51.425Z139.009° SSE
9 mins2024-12-27 14:30:51.425Z287.611° WNW2024-12-27 14:34:51.425Z246.343° WSW22.285°2024-12-27 14:39:51.425Z203.282° SW
|